This is the latest recevied weather packets stored in our database for station/object SQ9RHX-13. If no packets are shown the sender has not sent any weather packets the latest 1 day(s).
| Time | Temp. | Humidity | Pressure | Rain* | Wind** | Luminosity | Snow |
|---|---|---|---|---|---|---|---|
| 1777985404 | 28.89° C | 31% | 1010 hPa | 0 mm | 0 m/s | 534 W/m² | - |
| 1777985103 | 28.89° C | 31% | 1009.9 hPa | 0 mm | 0 m/s | 548 W/m² | - |
| 1777984804 | 28.89° C | 29% | 1009.9 hPa | 0 mm | 0.45 m/s, 338° | 519 W/m² | - |
| 1777984505 | 28.89° C | 29% | 1010 hPa | 0 mm | 0.45 m/s, 164° | 548 W/m² | - |
| 1777984205 | 28.89° C | 30% | 1010 hPa | 0 mm | 0.45 m/s, 167° | 557 W/m² | - |
| 1777983904 | 27.78° C | 31% | 1010.2 hPa | 0 mm | 0 m/s | 579 W/m² | - |
| 1777983603 | 27.78° C | 30% | 1010.2 hPa | 0 mm | 0.89 m/s, 169° | 579 W/m² | - |
| 1777983304 | 27.22° C | 31% | 1010.3 hPa | 0 mm | 0.89 m/s, 64° | 572 W/m² | - |
| 1777983015 | 27.22° C | 31% | 1010.4 hPa | 0 mm | 0.89 m/s, 131° | 592 W/m² | - |
| 1777982703 | 27.78° C | 33% | 1010.5 hPa | 0 mm | 0.45 m/s, 6° | 599 W/m² | - |
| 1777982403 | 27.22° C | 33% | 1010.4 hPa | 0 mm | 0.89 m/s, 293° | 614 W/m² | - |
| 1777982104 | 27.78° C | 32% | 1010.5 hPa | 0 mm | 0.45 m/s, 40° | 610 W/m² | - |
| 1777981803 | 27.78° C | 32% | 1010.6 hPa | 0 mm | 0.45 m/s, 94° | 630 W/m² | - |
| 1777981505 | 27.78° C | 31% | 1010.6 hPa | 0 mm | 1.34 m/s, 71° | 618 W/m² | - |
| 1777981204 | 27.22° C | 33% | 1010.6 hPa | 0 mm | 0 m/s | 645 W/m² | - |
| 1777980902 | 27.78° C | 31% | 1010.6 hPa | 0 mm | 1.34 m/s, 93° | 676 W/m² | - |
| 1777980603 | 27.78° C | 30% | 1010.6 hPa | 0 mm | 0.45 m/s, 54° | 665 W/m² | - |
| 1777980303 | 27.78° C | 32% | 1010.8 hPa | 0 mm | 0.45 m/s, 338° | 656 W/m² | - |
| 1777980002 | 27.22° C | 35% | 1010.7 hPa | 0 mm | 0 m/s | 675 W/m² | - |
| 1777979703 | 27.22° C | 32% | 1010.8 hPa | 0 mm | 0 m/s | 662 W/m² | - |
| 1777979404 | 26.67° C | 33% | 1010.9 hPa | 0 mm | 0.45 m/s, 148° | 688 W/m² | - |
| 1777979102 | 26.67° C | 35% | 1010.9 hPa | 0 mm | 0.89 m/s, 9° | 661 W/m² | - |
| 1777978803 | 26.67° C | 35% | 1010.8 hPa | 0 mm | 0.89 m/s, 173° | 676 W/m² | - |
| 1777978502 | 26.67° C | 36% | 1010.9 hPa | 0 mm | 0.45 m/s, 246° | 671 W/m² | - |
| 1777978203 | 26.11° C | 34% | 1011 hPa | 0 mm | 0 m/s | 693 W/m² | - |
* Rain latest hour (hover to see other rain measurements)
** Current wind speed in m/s (hover to see current wind gust speed)